Home > Weather > Kotka > Past weeks

Flag for Finland Weather for the Past 2 Weeks in Kotka, Finland

Now
45 °F

Clear.


Feels Like: 42 °F
Forecast: 40 / 49 °F
Wind: 5 mph from East

Location: Utti

Current Time: Apr 29, 2016 at 11:14:41 PM

Latest Report: Apr 29, 2016 at 10:20 PM


Visibility: 10 mi

Pressure: 30.33 "Hg

Humidity: 87%

Dew Point: 41 °F

Location of KotkaLocation

Historic Weather in Kotka — Graph

°F

Kotka Temperature Yesterday

Maximum temperature yesterday: 57 °F (at 5:50 PM)
Minimum temperature yesterday: 32 °F (at 2:20 AM)
Average temperature yesterday: 46 °F

High & Low Weather Summary for the Past Weeks

 TemperatureHumidityPressure
High57 °F (Apr 28, 5:50 PM)100% (Apr 17, 6:20 PM)30.33 "Hg (Apr 17, 6:20 PM)
Low27 °F (Apr 15, 5:50 AM)24% (Apr 15, 4:50 PM)29.42 "Hg (Apr 18, 6:20 AM)
Average41 °F79%29.73 "Hg
* Reported Apr 14 9:20 PM — Apr 29 9:50 PM, Kotka, Weather by CustomWeather, © 2016

Note: Actual official high and low records may vary slightly from our data, if they occured in-between our weather recording intervals... More about our weather records

Advertising

Kotka Weather History for the Previous 24 Hours

Scroll right to see more
 ConditionsComfort  
Time TempWeatherWind HumidityBarometerVisibility
9:50 PM
Fri, Apr 29
46 °FSunny.3 mph76%30.33 "Hg10 mi
9:20 PM46 °FSunny.6 mph76%30.33 "Hg10 mi
8:50 PM48 °FSunny.3 mph66%30.30 "Hg10 mi
8:20 PM48 °FSunny.2 mph66%30.30 "Hg10 mi
7:50 PM50 °FSunny.3 mph62%30.30 "Hg10 mi
7:20 PM50 °FSunny.3 mph62%30.30 "Hg10 mi
6:50 PM52 °FSunny.3 mph54%30.30 "Hg10 mi
6:20 PM52 °FSunny.3 mph54%30.30 "Hg10 mi
5:50 PM52 °FSunny.3 mph54%30.30 "Hg10 mi
5:20 PM52 °FPassing clouds.5 mph54%30.30 "HgN/A
4:50 PM52 °FSunny.2 mph50%30.30 "Hg10 mi
4:20 PM52 °FPartly sunny.3 mph50%30.30 "HgN/A
3:50 PM52 °FBroken clouds.3 mph50%30.30 "HgN/A
3:20 PM52 °FPartly sunny.3 mph50%30.30 "HgN/A
2:50 PM52 °FSunny.2 mph54%30.30 "Hg10 mi
2:20 PM50 °FPartly sunny.3 mph58%30.30 "HgN/A
1:50 PM50 °FPassing clouds.6 mph58%30.30 "HgN/A
1:20 PM50 °FPartly sunny.2 mph58%30.30 "HgN/A
12:50 PM48 °FPartly sunny.7 mph66%30.30 "HgN/A
12:20 PM46 °FPartly sunny.6 mph71%30.30 "HgN/A
11:50 AM46 °FPartly sunny.6 mph71%30.30 "HgN/A
11:20 AM45 °FPartly sunny.5 mph76%30.27 "HgN/A
10:50 AM45 °FPartly sunny.6 mph76%30.27 "HgN/A
10:20 AM43 °FBroken clouds.3 mph81%30.27 "HgN/A
9:50 AM41 °FBroken clouds.5 mph81%30.27 "HgN/A
9:20 AM41 °FScattered clouds.5 mph81%30.24 "HgN/A
8:50 AM39 °FPartly sunny.6 mph87%30.24 "HgN/A
8:20 AM39 °FPartly sunny.6 mph87%30.24 "HgN/A
7:50 AM39 °FPartly sunny.8 mph87%30.21 "HgN/A
7:20 AM39 °FPartly sunny.8 mph93%30.21 "HgN/A
6:50 AM39 °FLow clouds.10 mph93%30.18 "HgN/A
6:20 AM39 °FLow clouds.9 mph93%30.15 "HgN/A
4:20 AM43 °FLight rain. Low clouds.12 mph93%30.09 "HgN/A
3:50 AM45 °FMostly cloudy.5 mph100%30.07 "HgN/A
3:20 AM45 °FLight rain. Overcast.5 mph100%30.04 "HgN/A
2:50 AM46 °FLight rain. Mostly cloudy.9 mph93%30.04 "HgN/A
2:20 AM48 °FLight rain. Low clouds.7 mph100%30.01 "HgN/A
1:50 AM48 °FRain. Mostly cloudy.8 mph100%30.01 "HgN/A
1:20 AM50 °FLight rain. Low clouds.9 mph100%29.98 "HgN/A
12:50 AM52 °FLight rain. Low clouds.9 mph100%29.98 "HgN/A
12:20 AM52 °FRain. Low clouds.12 mph100%29.95 "Hg6 mi
11:50 PM
Thu, Apr 28
52 °FRain. Overcast.15 mph100%29.95 "Hg6 mi
11:20 PM52 °FLight rain. Overcast.12 mph100%29.95 "HgN/A
Weather by CustomWeather, © 2016

See weather overviewHow to use our weather pages